Location: Saratoga Springs
(43.0831°N, 73.7850°W)
Time: 20:25:04
(UTC-04:00)

Tiros 1 despin weight - Visible Passes

Search period start: 16 April 2024 00:00
Search period end: 26 April 2024 00:00
Orbit: 579 x 623 km, 48.2° (Epoch: 16 April)

Date Brightness Start Highest point End Pass type
(mag) Time Alt. Az. Time Alt. Az. Time Alt. Az.
16 Apr ? 21:38:59 10° W 21:42:40 24° SW 21:43:50 21° SSW visible
17 Apr ? 20:08:19 10° WNW 20:12:50 63° SSW 20:17:22 10° SE visible
17 Apr ? 21:51:02 10° WSW 21:53:22 14° SW 21:54:33 13° SSW visible
18 Apr ? 20:19:28 10° WNW 20:23:44 39° SW 20:27:59 10° SSE visible
19 Apr ? 20:30:52 10° W 20:34:31 24° SW 20:38:10 10° S visible
20 Apr ? 20:42:54 10° WSW 20:45:12 14° SW 20:47:28 10° SSW visible
